Wind_Speed
9 13 14 13 12 12 15 19 22 18 20 19 17 15 15 18 18 19 22 25 26 25 21 25 26 18 20 20 18 14 9 8 8 8 9 8 7 9 10 11 11 12 13 12 13 12 13 14 15
6 9 12 14 14 13 16 20 23 21 21 21 20 17 14 17 22 24 25 26 26 25 24 24 25 17 24 27 21 16 11 11 11 12 12 13 13 14 14 14 14 13 13 13 15 15 15 15 16
7 7 8 10 12 14 17 21 25 24 22 21 21 21 21 23 27 29 27 23 19 18 18 16 12 15 27 32 23 18 15 15 15 17 17 19 20 19 18 17 15 15 15 16 17 19 18 17 19
7 8 7 7 9 13 16 19 22 23 23 24 23 23 26 27 30 30 25 14 14 11 6 3 9 17 25 28 25 21 19 19 20 22 21 24 23 26 22 20 18 17 20 22 21 21 18 17 21
8 8 7 6 4 6 12 15 16 20 25 24 23 22 19 15 17 21 20 16 18 6 5 6 4 15 24 26 28 25 22 22 24 24 26 25 24 26 16 19 18 19 23 23 25 25 18 19 23
9 9 6 4 1 3 5 9 14 16 18 16 14 12 10 8 11 16 18 18 14 3 2 1 3 6 14 10 17 22 22 27 25 23 27 27 27 29 22 21 22 22 23 23 27 24 24 28 31
11 10 7 5 2 3 6 8 11 12 11 6 4 8 8 9 10 11 12 11 10 8 5 8 9 10 11 12 16 18 21 23 24 27 28 27 24 26 26 24 26 29 28 29 34 32 30 34 39
12 11 10 10 8 9 11 10 7 7 2 3 5 8 8 8 9 9 10 9 8 9 7 11 14 15 15 18 21 23 24 25 27 28 29 28 27 30 30 28 32 35 33 33 38 37 35 37 40
14 12 14 15 15 17 16 12 9 6 6 4 5 8 9 11 11 11 11 11 10 9 10 11 13 15 18 20 22 25 28 28 28 28 28 29 28 29 30 31 35 38 38 38 40 39 39 39 40
17 16 17 17 17 17 16 13 10 10 9 8 9 9 10 11 10 10 10 12 12 11 12 13 13 16 19 21 22 25 26 27 27 27 26 26 26 27 28 30 33 35 37 36 36 36 38 38 39
18 17 17 20 20 19 18 17 14 11 8 9 9 8 9 12 11 11 12 13 12 12 11 12 13 15 16 19 21 19 20 22 23 23 21 22 23 24 26 28 30 32 34 35 35 35 36 36 36
18 17 16 18 21 21 21 21 17 12 12 12 10 8 10 11 11 11 11 11 12 12 12 12 11 10 11 13 15 16 16 18 19 20 21 23 24 24 26 28 29 31 33 35 35 36 37 38 39
19 17 15 16 20 23 23 22 19 12 14 13 13 12 10 8 10 13 13 12 12 12 14 14 13 13 14 15 16 18 19 20 21 23 24 25 27 28 29 31 33 35 36 38 39 40 41 42 43
19 18 15 15 18 22 24 21 19 15 15 16 14 13 8 8 12 17 17 15 15 16 17 17 17 17 19 20 20 21 22 22 23 24 26 27 28 28 29 31 33 36 38 39 41 42 43 44 45
20 19 16 16 20 22 22 22 22 18 17 17 16 16 11 11 14 18 19 18 17 18 19 20 20 20 21 22 22 22 22 23 25 27 28 30 31 32 33 34 35 36 39 40 42 44 45 46 46
20 20 19 21 25 24 23 21 22 21 19 20 21 20 13 11 12 15 17 16 16 18 20 21 23 23 23 23 24 24 24 24 25 28 30 31 32 34 36 37 39 39 41 43 45 47 47 48 48
22 23 24 25 28 25 23 18 21 22 20 22 24 19 15 13 12 14 18 21 22 22 23 23 25 25 24 24 24 24 24 24 26 30 33 35 36 39 41 43 45 46 48 49 51 53 54 55 55
25 24 24 25 28 26 23 18 18 20 23 26 25 17 18 18 17 17 24 29 28 27 27 28 28 24 24 25 27 29 31 31 33 38 43 46 48 48 49 52 56 57 56 55 56 57 59 60 63
26 24 23 25 25 25 25 22 21 23 25 26 24 22 21 22 25 28 32 32 31 29 29 29 31 28 29 30 32 34 38 42 46 50 53 55 56 55 53 54 57 56 52 49 48 49 50 51 54
25 25 25 25 23 25 27 28 25 22 23 26 28 26 26 28 32 36 37 35 32 31 33 33 32 33 35 37 39 41 46 49 51 52 56 58 57 56 54 53 53 52 49 49 51 56 58 59 61
26 26 25 25 25 25 28 28 23 23 26 28 29 31 32 34 37 39 36 34 33 34 35 36 36 37 40 44 47 49 52 53 56 58 58 57 59 61 60 56 58 61 63 68 75 75 78 78 74
26 27 26 25 25 27 27 27 24 25 28 30 32 34 36 37 38 36 32 30 32 35 36 38 39 42 46 51 52 53 55 57 59 58 59 62 63 65 67 69 71 75 77 80 84 86 82 81 83
28 28 27 25 26 27 28 29 28 28 30 33 34 35 34 33 33 33 33 32 34 35 37 39 43 46 48 51 54 57 56 58 62 65 68 69 69 73 78 78 81 85 87 89 88 86 88 85 85
28 29 28 29 29 28 28 29 30 29 30 31 32 34 34 32 34 34 35 35 35 38 39 41 45 47 50 55 60 63 65 68 71 73 76 77 79 83 85 86 86 84 83 84 84 84 85 84 85
28 27 25 26 27 27 26 29 29 30 30 30 31 32 34 36 36 36 35 34 33 36 39 43 46 52 58 63 66 69 72 75 77 78 80 83 85 85 83 81 77 72 70 71 72 70 68 66 65
27 27 26 27 28 29 30 31 33 33 32 33 34 34 34 32 30 31 32 33 35 40 44 49 55 61 65 68 71 73 75 78 80 82 84 84 81 79 74 68 64 64 62 61 62 60 61 63 61
26 27 27 28 31 33 36 37 37 35 36 37 35 33 31 28 28 31 35 37 41 47 52 56 61 65 67 69 72 76 79 81 83 83 79 76 73 67 62 58 53 55 60 63 64 61 61 63 62
23 25 26 29 33 36 40 43 42 39 37 36 33 31 30 30 31 34 39 43 49 53 57 61 65 69 73 76 78 81 83 82 79 76 76 71 65 63 61 57 59 63 67 68 62 59 58 59 58
25 26 27 30 32 37 40 41 40 38 36 32 31 31 32 34 38 42 47 50 53 57 60 65 70 74 76 79 80 80 77 75 73 70 66 63 61 62 61 63 64 65 63 56 51 51 51 50 47
30 30 31 34 37 38 40 41 38 36 33 31 32 34 37 41 45 48 51 54 58 62 67 71 75 78 79 78 76 72 68 63 61 61 61 61 60 59 59 58 55 50 45 41 38 38 37 35 35
Wind_Direction
254 251 244 238 245 244 230 220 223 223 225 232 245 261 276 292 295 309 319 316 308 308 303 294 300 285 247 248 242 238 230 240 250 253 253 247 254 271 279 282 284 288 291 294 295 294 297 297 295
275 261 253 245 247 249 236 223 220 222 228 235 244 258 276 295 295 298 308 307 304 300 302 298 293 287 241 230 230 230 227 235 246 251 252 254 260 263 262 265 268 272 278 287 292 289 290 292 294
283 280 271 256 243 237 231 224 217 221 230 241 252 263 279 293 294 295 303 313 307 300 302 297 277 253 234 222 223 224 228 241 248 251 253 261 265 263 260 257 259 269 274 279 286 286 288 294 292
288 281 273 275 257 237 226 223 218 221 231 245 260 279 288 290 293 295 303 322 337 324 286 271 222 230 220 216 226 234 245 247 251 253 254 257 259 259 259 262 248 256 266 268 273 278 285 295 296
295 279 292 316 315 231 220 221 220 225 235 250 269 286 298 295 289 296 304 311 325 334 201 154 197 247 241 237 230 237 250 255 254 252 257 269 278 278 286 276 273 255 254 261 264 271 279 289 287
291 302 323 346 72 179 214 220 221 230 244 254 271 295 317 323 310 310 311 310 330 352 189 149 30 326 269 253 237 249 255 255 254 257 257 263 264 272 283 285 284 281 283 291 289 278 287 292 294
300 309 321 303 268 252 267 253 237 233 244 242 297 326 352 2 348 337 339 346 338 331 291 283 293 282 283 288 291 293 289 285 287 285 274 267 272 276 273 277 283 279 280 284 286 287 291 291 293
303 305 306 297 278 278 284 273 275 237 255 285 335 339 343 344 345 341 339 333 316 300 282 260 261 266 267 270 276 277 279 282 283 284 289 291 291 295 294 283 281 284 288 286 285 286 286 283 282
299 297 301 298 300 304 310 316 355 0 347 346 351 351 350 341 338 332 325 320 312 298 279 265 254 261 267 271 277 280 278 277 278 282 285 287 290 291 291 286 283 284 284 282 281 280 278 275 274
294 294 294 299 306 308 309 314 345 348 352 351 350 345 336 326 319 307 300 298 296 288 276 262 259 261 265 266 276 281 276 275 278 280 281 281 282 280 278 280 282 282 279 276 277 281 280 277 275
290 288 295 295 300 304 303 306 320 330 332 337 343 338 313 309 315 302 292 292 293 288 280 271 267 264 266 267 274 277 271 269 270 274 277 278 278 277 275 275 275 275 275 275 276 278 278 278 276
282 287 291 291 292 292 293 301 303 314 316 316 323 323 296 303 313 307 300 298 294 294 291 285 280 273 269 269 270 270 268 268 272 277 279 279 279 279 278 277 277 276 275 275 276 275 275 276 275
281 284 283 284 287 287 290 292 291 305 307 304 303 302 306 308 304 295 291 288 287 290 291 292 292 288 280 274 270 270 273 274 275 276 275 274 274 275 277 278 278 278 279 278 277 276 274 272 272
285 281 279 279 280 283 281 275 275 284 287 287 289 288 289 279 279 282 285 290 290 286 284 283 282 280 277 275 274 274 274 275 276 276 275 275 274 274 274 275 277 277 276 275 274 273 273 272 272
279 275 273 269 266 265 264 267 273 280 278 276 276 272 268 264 275 283 291 296 292 284 280 281 279 273 272 273 273 270 268 269 270 272 273 274 274 274 273 272 273 276 277 277 276 276 276 276 276
274 270 258 254 256 262 266 269 269 275 276 272 269 267 276 281 289 289 291 293 291 284 280 281 279 274 274 276 276 276 275 273 272 272 273 274 275 275 275 276 276 276 277 278 278 278 278 279 279
265 262 260 259 265 267 268 268 267 274 273 270 269 272 288 295 293 299 299 298 296 290 284 281 278 275 275 273 269 266 266 270 278 284 287 286 283 282 281 281 280 277 275 275 277 278 278 277 276
262 266 267 263 266 271 273 268 258 270 276 277 279 290 301 292 293 302 310 309 306 300 293 287 284 288 292 289 287 284 279 277 282 290 294 296 296 293 287 283 282 280 276 275 275 275 273 272 270
271 270 268 265 265 264 268 268 265 264 270 281 288 291 291 295 309 313 316 314 307 300 291 289 293 297 297 296 297 294 288 286 287 288 291 295 295 293 291 290 288 285 280 275 274 273 271 275 276
271 270 269 268 266 260 259 261 264 263 271 274 279 285 294 304 310 311 312 310 305 299 296 296 294 296 296 296 293 290 292 293 293 294 296 297 296 295 296 294 291 287 287 286 282 279 280 285 287
265 265 265 266 268 266 263 262 266 271 275 280 287 295 299 300 300 302 302 300 298 296 297 293 293 294 292 291 292 293 294 297 298 299 298 296 296 294 296 297 295 292 291 289 291 291 288 289 289
267 267 267 266 266 265 263 264 270 274 279 283 284 287 290 292 294 295 292 288 290 290 288 286 286 286 287 289 290 294 297 300 301 300 298 300 302 301 298 296 293 291 290 289 291 294 293 290 289
266 267 268 267 261 259 259 262 262 262 265 271 277 282 286 290 289 287 284 282 281 280 281 281 284 286 289 291 295 297 297 297 299 299 299 298 297 296 294 291 292 293 292 291 291 289 289 291 291
262 265 267 266 268 269 270 273 275 277 277 276 278 281 283 283 282 281 280 278 277 278 281 283 287 289 292 296 298 299 298 297 297 296 297 296 295 293 292 292 292 292 292 291 289 286 286 288 290
257 259 264 268 275 279 281 281 281 281 283 284 284 282 282 284 284 282 283 284 281 283 287 291 293 295 297 297 297 296 295 293 292 291 291 291 293 295 296 296 295 293 294 294 293 289 287 288 288
263 267 271 275 279 279 278 281 285 285 287 290 291 291 291 291 290 291 290 288 284 284 287 291 294 295 294 294 293 292 290 290 290 292 295 297 298 298 297 294 292 290 291 293 291 287 286 287 287
261 265 270 273 278 282 288 291 292 294 298 300 300 299 299 296 294 293 288 284 284 286 289 292 293 294 294 294 293 294 295 296 297 299 300 299 300 298 297 294 290 292 295 292 287 284 285 285 284
257 262 267 271 278 284 290 293 297 299 301 302 302 300 298 295 290 287 286 287 288 289 291 293 296 298 298 298 298 299 300 302 301 300 299 299 298 297 295 293 288 287 290 292 285 281 285 285 283
257 261 271 278 284 288 291 292 297 300 300 299 297 295 293 292 289 289 290 290 290 292 296 298 298 297 297 298 300 301 301 301 301 300 299 298 295 293 290 291 291 289 289 291 289 285 286 287 288
261 267 276 280 285 287 290 293 296 297 296 293 291 290 289 289 289 290 291 293 295 296 297 297 297 298 299 298 298 299 300 300 300 299 297 295 293 290 292 295 296 296 295 294 292 290 291 292 292
Height
5880 5881 5883 5885 5886 5886 5886 5887 5887 5890 5893 5894 5894 5894 5895 5894 5894 5896 5895 5893 5891 5893 5893 5894 5896 5896 5898 5899 5898 5898 5898 5899 5900 5899 5900 5899 5899 5899 5900 5900 5900 5901 5902 5902 5901 5900 5900 5900 5900
5877 5878 5880 5882 5883 5884 5885 5885 5886 5888 5891 5892 5893 5894 5893 5893 5892 5892 5892 5889 5889 5888 5888 5889 5888 5889 5892 5894 5894 5895 5894 5896 5897 5896 5896 5896 5896 5896 5897 5897 5897 5897 5898 5897 5898 5897 5896 5895 5895
5876 5877 5878 5879 5880 5881 5882 5882 5884 5887 5889 5890 5891 5891 5892 5893 5890 5889 5890 5889 5886 5884 5884 5883 5883 5883 5886 5889 5891 5890 5890 5892 5892 5892 5891 5892 5892 5892 5892 5893 5893 5892 5893 5892 5892 5892 5892 5891 5891
5875 5876 5876 5877 5877 5878 5880 5881 5884 5887 5888 5888 5889 5890 5891 5890 5887 5885 5887 5886 5885 5884 5883 5881 5879 5881 5883 5885 5887 5887 5887 5887 5886 5887 5887 5885 5884 5884 5885 5886 5885 5885 5885 5885 5887 5886 5886 5886 5886
5874 5875 5875 5875 5876 5878 5879 5882 5884 5886 5886 5887 5888 5888 5887 5885 5883 5882 5882 5882 5882 5882 5883 5880 5879 5880 5881 5881 5884 5884 5884 5883 5883 5883 5882 5879 5876 5876 5877 5876 5878 5877 5877 5879 5879 5880 5879 5879 5881
5874 5874 5876 5876 5877 5878 5881 5882 5883 5884 5886 5887 5887 5886 5884 5882 5881 5880 5879 5877 5877 5879 5879 5877 5876 5877 5878 5876 5879 5881 5880 5880 5880 5879 5878 5877 5876 5874 5873 5873 5871 5872 5873 5874 5874 5874 5872 5874 5876
5875 5875 5876 5876 5877 5878 5881 5882 5884 5885 5885 5885 5885 5883 5881 5880 5879 5878 5876 5875 5876 5876 5877 5876 5876 5876 5875 5875 5876 5876 5876 5876 5875 5874 5872 5872 5870 5871 5870 5868 5867 5867 5867 5866 5865 5868 5867 5869 5870
5874 5875 5875 5875 5876 5878 5880 5881 5882 5882 5881 5881 5881 5880 5879 5879 5877 5876 5875 5875 5876 5876 5875 5875 5874 5873 5873 5874 5874 5874 5875 5874 5873 5871 5868 5867 5866 5866 5865 5864 5865 5864 5863 5862 5860 5860 5861 5862 5862
5873 5875 5874 5874 5874 5875 5876 5877 5878 5877 5878 5878 5878 5878 5877 5876 5875 5873 5872 5872 5873 5873 5873 5873 5872 5871 5870 5871 5871 5870 5870 5870 5869 5867 5865 5864 5863 5862 5861 5859 5859 5859 5858 5858 5857 5856 5855 5855 5855
5873 5873 5873 5872 5873 5873 5873 5873 5876 5876 5875 5876 5876 5876 5875 5874 5872 5871 5870 5870 5869 5869 5869 5869 5868 5868 5868 5868 5868 5867 5865 5864 5864 5863 5862 5861 5859 5858 5858 5856 5856 5855 5854 5852 5851 5850 5849 5848 5847
5872 5872 5871 5870 5869 5870 5870 5870 5872 5874 5873 5874 5875 5875 5874 5872 5870 5868 5867 5866 5866 5866 5866 5865 5864 5864 5864 5864 5864 5863 5862 5861 5860 5859 5857 5856 5854 5852 5852 5851 5851 5850 5848 5845 5844 5843 5842 5840 5839
5869 5869 5869 5868 5867 5868 5868 5869 5870 5871 5872 5872 5872 5872 5872 5870 5868 5867 5865 5864 5863 5862 5862 5862 5861 5861 5860 5859 5859 5858 5856 5855 5854 5852 5851 5849 5848 5846 5845 5844 5843 5842 5840 5838 5836 5836 5835 5833 5832
5867 5866 5866 5866 5865 5865 5866 5866 5867 5868 5868 5869 5868 5868 5869 5869 5866 5864 5862 5861 5860 5859 5859 5858 5857 5856 5855 5854 5853 5851 5850 5849 5848 5846 5844 5842 5840 5839 5838 5837 5836 5834 5832 5830 5828 5827 5826 5825 5824
5864 5862 5863 5863 5863 5862 5862 5862 5864 5866 5866 5865 5866 5866 5865 5865 5862 5860 5859 5858 5857 5856 5855 5853 5852 5852 5851 5850 5848 5846 5844 5843 5841 5839 5837 5836 5834 5832 5832 5830 5828 5826 5825 5822 5820 5818 5817 5815 5813
5860 5860 5859 5859 5858 5859 5858 5859 5860 5861 5862 5862 5863 5862 5862 5862 5860 5858 5855 5854 5854 5853 5851 5849 5849 5847 5846 5844 5842 5840 5838 5836 5835 5834 5832 5829 5827 5825 5822 5821 5819 5817 5814 5812 5810 5808 5807 5805 5804
5855 5855 5855 5854 5853 5854 5857 5858 5856 5857 5858 5858 5858 5858 5859 5858 5856 5854 5852 5851 5850 5848 5847 5845 5843 5841 5838 5836 5835 5833 5831 5830 5828 5826 5823 5821 5819 5817 5815 5813 5810 5807 5804 5801 5799 5797 5797 5796 5794
5850 5850 5850 5850 5849 5851 5852 5854 5852 5852 5854 5853 5852 5853 5854 5853 5852 5850 5848 5847 5845 5843 5841 5838 5836 5834 5832 5831 5829 5826 5824 5822 5820 5818 5815 5813 5811 5809 5806 5803 5801 5799 5795 5791 5788 5786 5785 5783 5780
5844 5845 5845 5846 5845 5846 5848 5850 5850 5849 5848 5848 5848 5849 5847 5846 5846 5846 5844 5842 5839 5837 5833 5830 5828 5828 5827 5826 5825 5823 5820 5816 5813 5810 5807 5804 5801 5798 5794 5791 5788 5785 5782 5778 5774 5771 5769 5766 5763
5839 5840 5841 5842 5842 5842 5843 5845 5846 5846 5844 5843 5843 5843 5842 5841 5839 5837 5836 5835 5833 5831 5827 5825 5822 5822 5821 5819 5818 5815 5811 5809 5805 5801 5797 5793 5789 5785 5781 5777 5772 5769 5766 5762 5758 5755 5753 5750 5746
5835 5834 5835 5837 5838 5838 5839 5840 5841 5840 5838 5836 5835 5835 5836 5836 5834 5832 5830 5828 5827 5825 5821 5819 5816 5815 5813 5811 5809 5805 5802 5799 5796 5791 5786 5780 5774 5769 5766 5763 5759 5754 5751 5747 5744 5737 5734 5734 5731
5829 5830 5830 5831 5832 5833 5834 5835 5835 5834 5832 5830 5829 5829 5830 5830 5829 5828 5825 5823 5821 5818 5815 5812 5810 5808 5804 5800 5797 5794 5791 5786 5782 5777 5772 5768 5763 5758 5755 5750 5746 5741 5738 5732 5726 5722 5717 5714 5713
5824 5825 5826 5827 5828 5828 5829 5830 5830 5827 5826 5825 5825 5825 5825 5824 5823 5822 5820 5817 5816 5813 5810 5807 5803 5800 5795 5791 5788 5784 5780 5776 5771 5765 5759 5754 5749 5743 5738 5733 5729 5724 5719 5713 5707 5700 5695 5692 5691
5818 5820 5821 5822 5822 5822 5822 5823 5824 5823 5823 5822 5821 5820 5818 5817 5816 5814 5813 5811 5809 5806 5802 5799 5796 5791 5787 5782 5778 5773 5769 5764 5758 5752 5745 5740 5734 5728 5721 5715 5707 5701 5697 5691 5686 5681 5676 5669 5668
5814 5815 5816 5816 5816 5817 5817 5817 5817 5816 5816 5816 5815 5814 5812 5811 5810 5807 5805 5803 5800 5797 5794 5792 5788 5782 5777 5772 5767 5760 5755 5749 5743 5735 5728 5723 5717 5710 5703 5696 5690 5684 5678 5671 5665 5661 5657 5651 5646
5809 5811 5811 5811 5811 5812 5812 5810 5810 5810 5809 5808 5807 5807 5806 5804 5802 5799 5796 5793 5791 5789 5785 5781 5776 5770 5765 5759 5753 5747 5741 5735 5728 5721 5713 5706 5699 5692 5684 5677 5671 5665 5659 5653 5647 5643 5639 5633 5629
5803 5805 5806 5806 5805 5805 5804 5803 5803 5802 5802 5800 5798 5797 5795 5794 5792 5790 5788 5785 5783 5780 5775 5770 5766 5761 5755 5748 5741 5734 5727 5719 5710 5701 5693 5685 5678 5671 5664 5659 5654 5648 5643 5637 5631 5626 5622 5618 5614
5797 5798 5800 5800 5798 5797 5796 5796 5795 5794 5792 5790 5788 5786 5785 5784 5783 5781 5779 5776 5772 5768 5764 5760 5754 5747 5740 5733 5725 5717 5709 5700 5691 5683 5674 5667 5661 5652 5647 5642 5637 5632 5627 5620 5615 5610 5605 5600 5597
5792 5792 5793 5793 5792 5790 5789 5787 5787 5786 5784 5782 5780 5779 5777 5776 5774 5772 5769 5766 5763 5759 5754 5748 5740 5732 5723 5715 5707 5700 5692 5683 5675 5666 5659 5651 5644 5637 5631 5625 5620 5615 5609 5603 5596 5593 5589 5585 5581
5787 5788 5788 5788 5787 5785 5782 5782 5780 5778 5776 5774 5773 5771 5770 5767 5765 5764 5761 5757 5752 5746 5740 5732 5723 5715 5707 5700 5692 5684 5676 5668 5659 5651 5643 5636 5630 5622 5615 5609 5604 5597 5591 5585 5580 5577 5574 5570 5567
5780 5780 5781 5781 5779 5777 5776 5777 5773 5770 5768 5767 5766 5764 5762 5760 5757 5754 5748 5742 5737 5730 5723 5715 5707 5698 5692 5684 5677 5670 5662 5654 5646 5638 5630 5622 5614 5607 5600 5594 5588 5581 5575 5571 5568 5566 5563 5559 5556